Wind_Speed
111 107 106 105 103 100 97 95 95 91 89 84 80 78 75 75 72 67 60 57 60 58 54 65 69 66 64 60 59 61 61 58 56 53 49 49 48 50 51 47 42 42 44
109 109 106 101 98 98 97 95 96 95 87 87 86 82 78 77 75 70 68 62 65 62 57 62 69 70 66 65 64 66 63 59 57 50 47 47 49 50 49 44 40 40 43
101 102 98 96 93 91 95 96 94 98 95 87 83 82 80 76 76 76 75 70 71 68 57 61 68 70 68 72 65 67 67 61 57 52 46 47 50 47 47 44 42 39 41
93 93 88 87 87 84 88 92 97 96 94 92 88 85 80 79 78 79 76 73 74 71 65 59 67 75 79 73 76 70 69 55 56 54 50 46 49 46 47 45 43 40 42
82 83 84 81 81 83 86 88 92 93 92 92 92 90 84 83 80 77 75 77 77 73 70 58 64 72 78 69 68 69 66 55 53 52 47 46 45 44 47 46 44 42 42
74 77 80 77 75 76 78 83 85 88 84 86 90 90 88 87 85 81 80 81 80 79 75 70 72 72 84 83 80 69 58 53 52 50 47 43 42 46 46 44 41 41 43
55 55 59 60 64 67 72 75 81 85 81 85 86 83 83 89 87 83 81 84 83 82 82 78 73 72 83 88 83 71 63 54 51 51 50 46 41 50 48 49 47 47 49
52 53 54 57 59 62 62 67 74 82 85 86 83 84 86 85 88 88 87 88 88 86 87 80 75 70 70 82 90 65 60 55 55 45 45 47 41 47 52 57 58 57 58
50 50 49 51 55 56 58 63 69 73 76 73 76 83 83 84 85 91 91 88 87 89 85 80 76 69 67 79 87 79 63 59 52 46 46 46 43 49 52 57 59 60 57
38 42 46 46 52 56 55 56 60 62 64 67 71 73 75 77 82 87 87 86 82 82 77 76 69 64 69 76 79 81 66 61 52 47 38 37 43 48 54 53 54 56 59
28 31 38 41 45 50 54 55 56 57 58 65 63 64 68 71 74 78 81 83 79 75 72 65 61 67 72 78 80 72 71 61 55 45 41 46 46 51 56 57 57 58 61
18 22 27 32 35 39 45 50 51 55 59 58 61 66 68 71 71 71 73 73 68 66 60 60 64 71 73 75 72 74 68 60 56 53 51 52 55 51 54 57 61 62 61
11 14 16 21 24 26 31 40 47 50 48 48 51 55 58 61 64 65 61 55 55 58 58 62 65 60 63 69 70 74 75 67 63 59 56 61 62 63 65 63 68 67 66
8 11 9 11 16 19 24 32 38 43 45 47 47 47 48 48 46 44 45 49 54 56 54 55 69 68 70 73 73 74 74 72 74 68 66 63 67 70 68 70 72 75 75
32 30 27 24 26 25 24 25 28 31 34 39 43 45 46 45 44 44 47 49 50 54 55 56 60 65 64 68 76 79 77 81 76 75 72 73 71 74 72 75 73 75 74
35 38 44 43 42 36 32 31 31 31 33 37 39 43 46 46 46 47 48 50 52 53 53 55 57 59 61 67 74 77 81 82 78 78 75 78 71 73 79 80 76 78 83
33 41 48 49 42 38 35 32 35 40 40 41 41 38 40 41 42 47 47 49 52 52 52 54 54 58 64 65 70 71 69 70 73 76 76 78 84 87 87 88 87 87 84
26 32 45 40 40 38 35 32 28 36 41 43 45 47 39 39 45 48 49 52 53 49 53 59 62 65 66 69 69 71 74 80 81 83 84 85 86 88 86 91 92 91 93
19 29 43 41 39 27 27 24 28 31 32 34 45 47 43 43 46 45 47 48 49 50 55 56 63 65 68 71 74 78 80 83 81 85 86 87 88 92 97 95 95 94 96
9 19 36 34 28 20 37 27 23 28 27 30 29 40 41 41 44 46 52 52 55 58 58 70 70 72 74 72 77 79 80 83 85 87 91 94 97 98 97 102 106 108 108
4 11 14 35 36 36 29 32 30 28 31 34 34 35 42 46 48 48 48 59 56 58 58 64 63 70 76 79 84 83 88 92 93 93 95 100 101 103 106 104 104 107 112
4 2 5 6 28 36 34 30 29 27 31 31 35 37 40 42 44 46 48 54 54 56 58 64 65 68 70 75 77 81 84 86 89 95 101 102 105 110 111 111 112 112 112
17 14 11 7 7 23 40 41 37 28 33 36 37 37 38 42 46 51 51 55 60 63 65 61 66 69 72 76 80 81 88 95 96 100 103 104 106 109 112 117 115 110 111
15 13 12 12 14 18 21 32 37 35 36 33 31 42 43 48 53 59 63 65 65 68 70 73 74 77 81 86 91 94 99 100 98 101 108 111 112 114 117 116 117 117 117
9 10 12 11 13 16 21 31 38 50 43 50 49 46 56 57 54 58 64 66 76 83 84 80 79 83 88 93 96 99 107 112 117 124 123 121 123 123 124 125 128 130 134
4 4 6 11 17 16 16 19 26 35 47 56 52 55 58 57 58 62 66 69 69 73 77 85 91 95 99 106 113 120 123 127 131 135 137 142 145 144 145 147 146 145 143
Wind_Direction
258 258 256 253 253 252 251 252 252 252 252 250 250 253 253 253 255 256 250 248 248 257 239 238 235 239 244 247 248 249 253 255 257 261 260 265 269 271 273 276 279 280 283
256 257 256 255 253 252 251 249 250 251 251 252 251 250 249 251 252 252 253 243 250 249 247 234 234 235 238 242 250 249 249 251 256 256 260 265 268 269 273 276 277 276 277
259 256 254 254 250 248 249 249 249 250 251 249 248 249 250 250 251 251 251 249 248 250 241 241 238 231 231 240 247 244 248 254 253 260 260 264 265 268 269 272 271 273 276
255 255 253 250 248 244 243 244 245 245 246 247 247 246 245 245 245 247 246 247 247 249 250 242 233 231 228 236 245 244 245 252 255 259 258 260 264 266 268 269 270 272 276
250 251 250 246 243 242 240 239 240 240 241 243 244 245 245 244 242 244 245 247 248 247 248 237 231 231 226 231 244 249 251 251 256 254 254 259 265 267 269 270 270 274 275
248 248 249 250 248 243 241 240 240 239 238 239 240 241 240 240 242 242 244 246 247 248 247 242 235 239 231 231 240 247 248 251 251 252 251 257 266 270 272 275 276 276 276
249 249 251 251 248 246 242 237 236 236 237 236 238 238 236 237 237 235 238 240 244 246 247 246 245 241 234 231 238 246 252 245 250 250 250 252 260 270 273 270 270 272 274
249 243 240 238 235 234 235 235 237 238 237 237 237 236 235 235 233 233 235 237 240 245 247 247 248 246 240 236 235 240 241 242 250 245 245 250 257 264 269 270 272 274 278
253 248 244 239 237 235 232 232 235 236 234 233 238 239 240 239 236 236 238 240 241 242 244 248 248 245 239 234 231 233 241 242 242 242 246 255 263 271 267 274 277 280 279
259 253 245 237 234 236 235 232 229 230 233 237 238 238 238 240 237 237 237 238 241 242 246 247 245 240 228 229 229 231 235 238 238 240 248 259 270 271 275 276 284 286 284
250 247 243 237 231 228 230 231 230 229 228 228 227 229 232 235 236 236 239 239 243 247 247 246 232 224 226 225 228 227 232 235 239 241 248 256 262 268 274 281 284 285 281
247 241 240 238 229 228 224 225 227 226 228 228 227 227 228 230 233 239 240 242 245 242 230 222 224 225 228 226 223 226 229 238 240 245 248 257 260 268 277 279 277 274 280
221 228 229 231 230 226 216 215 218 219 221 223 224 227 231 233 235 240 239 237 228 223 221 221 218 216 217 220 222 228 233 239 241 247 253 254 262 267 270 272 276 279 277
100 111 142 173 185 194 201 201 210 211 213 216 217 218 220 221 224 228 219 216 218 218 222 219 214 218 220 219 220 228 233 239 240 247 255 258 262 266 269 272 277 277 279
80 92 101 118 128 139 157 167 182 190 195 202 205 210 215 217 220 217 214 215 212 212 215 216 219 220 220 222 225 227 233 239 243 247 254 259 262 266 269 270 273 276 275
85 96 108 102 102 112 127 140 149 163 175 179 184 195 200 204 205 211 209 213 213 213 209 210 209 213 216 222 226 232 238 244 249 252 255 260 262 265 270 271 274 273 279
105 119 119 116 112 115 120 119 139 142 151 165 172 178 187 202 206 207 208 202 200 199 203 206 208 214 219 224 230 237 244 248 252 255 257 259 260 265 271 272 272 274 278
123 122 128 123 128 130 126 125 137 148 153 165 170 179 184 196 193 195 194 195 195 200 204 208 214 219 223 228 233 238 242 245 247 252 257 261 264 268 269 272 274 278 278
116 133 145 143 136 144 139 140 152 150 156 180 180 183 185 184 186 190 192 197 196 202 208 219 221 224 228 233 238 241 243 246 252 254 259 263 266 267 269 272 273 274 274
145 139 161 156 161 153 160 158 175 173 171 169 182 193 190 192 195 197 196 205 208 210 219 219 225 231 234 234 237 242 245 250 254 259 260 261 265 267 267 268 271 274 275
48 102 141 177 178 178 174 177 182 186 188 185 188 195 195 194 201 202 209 214 213 221 226 227 234 236 237 240 238 245 249 252 255 259 260 260 264 265 267 268 271 274 276
350 75 131 139 194 193 188 196 193 207 204 198 198 207 204 203 212 215 219 220 225 232 235 240 242 245 249 248 251 253 255 260 263 262 263 266 267 267 269 271 274 277 277
277 282 285 249 213 205 207 209 209 209 216 218 213 216 215 218 219 223 226 228 230 232 236 242 244 249 252 253 257 262 263 262 264 264 265 267 269 270 270 271 273 274 275
268 262 241 241 250 242 233 228 218 223 221 219 230 229 230 233 232 231 233 234 234 238 242 243 246 250 254 257 260 262 264 264 265 266 265 265 266 266 267 266 267 268 269
263 258 247 244 246 251 248 240 236 226 233 229 229 232 235 239 240 240 241 241 241 243 246 250 257 259 261 263 261 263 264 265 265 264 264 264 263 264 264 265 267 269 271
182 196 203 225 235 234 238 247 247 246 244 241 243 242 241 243 252 254 253 254 256 257 255 255 258 260 261 263 265 264 263 263 263 262 263 263 264 265 265 265 265 267 269
Height
10622 10629 10636 10643 10650 10662 10671 10679 10684 10692 10699 10711 10718 10726 10734 10735 10741 10746 10754 10760 10764 10768 10770 10776 10781 10787 10793 10796 10798 10800 10803 10805 10810 10815 10816 10816 10818 10819 10819 10820 10821 10822 10822
10590 10598 10607 10615 10626 10634 10646 10654 10661 10665 10680 10689 10699 10706 10712 10718 10725 10734 10740 10748 10751 10754 10759 10763 10769 10776 10783 10785 10789 10791 10792 10796 10800 10805 10808 10809 10808 10809 10810 10812 10813 10813 10813
10566 10571 10578 10586 10596 10609 10618 10627 10638 10642 10653 10667 10676 10686 10697 10706 10710 10716 10720 10727 10733 10739 10746 10751 10755 10762 10768 10773 10774 10776 10780 10787 10791 10796 10801 10798 10797 10801 10801 10802 10804 10805 10805
10536 10542 10550 10560 10570 10582 10589 10599 10609 10619 10629 10638 10654 10667 10678 10686 10691 10695 10703 10711 10717 10722 10731 10739 10741 10749 10755 10760 10762 10766 10771 10779 10784 10787 10789 10788 10788 10792 10791 10793 10796 10797 10796
10514 10519 10525 10536 10547 10557 10566 10574 10582 10592 10608 10618 10629 10640 10656 10666 10671 10679 10687 10692 10699 10707 10717 10728 10730 10736 10745 10750 10752 10758 10766 10772 10775 10776 10779 10779 10781 10784 10782 10785 10787 10789 10788
10495 10500 10505 10515 10526 10534 10543 10554 10564 10575 10587 10598 10607 10620 10633 10642 10651 10662 10669 10673 10679 10690 10700 10713 10721 10725 10734 10740 10744 10750 10758 10762 10766 10768 10769 10770 10772 10773 10776 10777 10778 10779 10777
10480 10486 10492 10500 10507 10515 10524 10534 10543 10553 10568 10575 10588 10601 10614 10621 10631 10641 10651 10656 10664 10672 10680 10693 10705 10710 10719 10728 10733 10742 10749 10754 10756 10757 10759 10761 10762 10763 10767 10767 10768 10769 10767
10466 10470 10475 10480 10487 10495 10505 10514 10522 10532 10546 10559 10570 10582 10592 10603 10614 10624 10633 10640 10649 10657 10662 10675 10687 10697 10706 10714 10720 10733 10740 10745 10747 10748 10750 10751 10752 10754 10756 10756 10756 10757 10757
10451 10456 10462 10467 10473 10480 10488 10497 10506 10516 10528 10541 10555 10567 10578 10591 10600 10607 10616 10625 10634 10641 10649 10660 10672 10683 10691 10699 10709 10720 10731 10737 10736 10737 10740 10742 10743 10744 10745 10745 10745 10745 10746
10440 10443 10448 10454 10460 10468 10476 10484 10494 10505 10516 10527 10537 10549 10563 10573 10580 10590 10600 10610 10616 10625 10636 10649 10660 10669 10679 10686 10694 10709 10719 10724 10725 10727 10730 10731 10733 10733 10732 10733 10732 10732 10732
10431 10434 10433 10440 10446 10455 10465 10475 10485 10496 10506 10514 10524 10538 10548 10557 10568 10578 10588 10597 10605 10616 10628 10642 10649 10655 10665 10675 10685 10699 10707 10711 10715 10718 10718 10720 10720 10721 10720 10719 10719 10719 10719
10427 10427 10427 10431 10438 10446 10456 10465 10477 10488 10496 10509 10519 10526 10536 10545 10554 10564 10575 10585 10601 10608 10618 10627 10635 10643 10654 10666 10678 10688 10695 10700 10705 10706 10706 10707 10707 10707 10707 10705 10704 10704 10703
10425 10425 10428 10429 10434 10439 10450 10458 10469 10478 10490 10501 10510 10519 10529 10539 10548 10557 10572 10580 10588 10598 10607 10616 10626 10638 10650 10662 10673 10679 10684 10690 10693 10695 10696 10695 10694 10694 10693 10692 10691 10689 10689
10428 10429 10430 10431 10435 10439 10446 10453 10460 10472 10480 10492 10502 10511 10520 10529 10542 10553 10563 10569 10580 10588 10601 10611 10620 10631 10640 10653 10659 10666 10672 10677 10680 10682 10683 10683 10681 10679 10678 10677 10676 10674 10674
10436 10435 10434 10435 10439 10442 10445 10452 10460 10470 10479 10489 10499 10508 10517 10528 10538 10547 10555 10563 10574 10585 10594 10604 10614 10623 10635 10643 10649 10654 10661 10663 10668 10669 10670 10669 10666 10663 10661 10662 10661 10658 10657
10444 10444 10442 10444 10447 10450 10453 10456 10460 10469 10476 10484 10493 10502 10513 10524 10535 10542 10553 10559 10568 10580 10591 10600 10611 10620 10630 10636 10641 10646 10652 10652 10655 10654 10654 10653 10649 10646 10646 10645 10645 10641 10642
10451 10452 10451 10452 10456 10458 10458 10463 10467 10473 10480 10487 10497 10507 10515 10524 10533 10542 10551 10562 10570 10581 10591 10599 10608 10614 10619 10626 10632 10636 10637 10638 10641 10639 10637 10634 10631 10630 10630 10630 10628 10628 10624
10461 10461 10461 10461 10464 10467 10470 10473 10478 10485 10488 10493 10501 10508 10520 10524 10534 10542 10552 10562 10571 10581 10587 10594 10601 10607 10613 10616 10619 10620 10622 10621 10621 10621 10620 10619 10617 10616 10614 10610 10607 10605 10603
10468 10468 10468 10469 10470 10473 10478 10483 10485 10489 10496 10502 10506 10513 10522 10529 10538 10547 10555 10562 10569 10578 10584 10589 10590 10595 10598 10603 10603 10606 10605 10606 10606 10605 10605 10603 10600 10595 10592 10588 10584 10582 10581
10476 10475 10476 10476 10478 10481 10483 10487 10491 10495 10501 10507 10514 10520 10528 10534 10540 10547 10553 10559 10564 10570 10574 10577 10582 10586 10587 10590 10590 10591 10590 10590 10588 10586 10583 10581 10577 10571 10565 10564 10562 10560 10557
10479 10479 10481 10483 10484 10486 10490 10492 10494 10499 10504 10509 10515 10520 10526 10532 10537 10544 10549 10554 10558 10562 10567 10570 10572 10573 10572 10573 10573 10573 10571 10569 10568 10565 10562 10559 10554 10550 10544 10541 10539 10534 10530
10482 10483 10484 10487 10488 10490 10493 10496 10500 10503 10507 10512 10517 10521 10528 10534 10540 10543 10546 10550 10553 10557 10560 10562 10562 10562 10561 10560 10559 10556 10553 10551 10548 10545 10540 10536 10531 10525 10520 10516 10510 10506 10505
10483 10484 10486 10487 10489 10492 10492 10495 10499 10502 10506 10510 10515 10518 10523 10528 10533 10538 10540 10542 10543 10544 10544 10545 10545 10544 10543 10542 10538 10533 10529 10524 10518 10512 10507 10502 10497 10492 10487 10483 10479 10480 10478
10478 10479 10480 10483 10487 10489 10491 10494 10497 10500 10503 10506 10511 10514 10518 10521 10523 10526 10528 10530 10533 10534 10534 10531 10529 10527 10524 10519 10514 10508 10502 10496 10490 10484 10477 10472 10465 10459 10454 10450 10450 10448 10444
10473 10474 10476 10477 10481 10484 10487 10491 10493 10495 10496 10500 10502 10504 10506 10510 10515 10517 10518 10521 10522 10521 10519 10516 10513 10508 10501 10494 10487 10480 10471 10464 10457 10451 10444 10435 10429 10423 10418 10416 10413 10414 10408
10473 10473 10473 10474 10476 10477 10479 10481 10484 10489 10492 10493 10496 10499 10500 10502 10505 10507 10508 10508 10507 10505 10501 10495 10489 10481 10474 10466 10456 10445 10435 10424 10413 10402 10394 10386 10383 10381 10376 10373 10374 10374 10374